Torna al catalogo

STARLINK-34832

AttivoComunicazioniVLEO
NORAD 65475·PAYLOAD·🇺🇸 United States

Lanciato Sep 3, 2025 da Cape Canaveral Space Force Station

Loading…

Prossimi Passaggi (prossime 24 ore)

TLE

AggiornatoSource: CelesTrak SupGP

Epoca: Sep 14, 2026, 21:22 UTC

1 65475C 25195T   26257.89076389 -.00045354  00000+0 -13404-2 0  2574
2 65475  53.1584  95.5824 0001193  82.6791 309.4805 15.34403711    14

Traccia STARLINK-34832 in tempo reale con AllMySat

Download on the App Store